Location: Kitchener
(43.4500°N, 80.5000°W)
Time: 15:11:32
(UTC-05:00)

ATLAS 5 CENTAUR R/B - Visible Passes

Search period start: 21 December 2014 00:00
Search period end: 31 December 2014 00:00
Orbit: 709 x 953 km, 63.4° (Epoch: 09 December)

Date Brightness Start Highest point End Pass type
(mag) Time Alt. Az. Time Alt. Az. Time Alt. Az.
21 Dec 4.8 04:26:44 11° SSE 04:26:44 11° SSE 04:27:01 10° SSE visible
21 Dec 1.8 19:05:49 10° SSW 19:10:54 77° ESE 19:11:14 73° E visible
21 Dec 4.8 20:52:06 10° W 20:52:51 13° W 20:52:51 13° W visible
22 Dec 1.9 18:47:14 10° SSW 18:52:18 73° ESE 18:53:49 46° NE visible
22 Dec 4.4 20:33:22 10° W 20:35:26 19° WNW 20:35:26 19° WNW visible
23 Dec 1.9 18:28:38 10° SSW 18:33:41 68° ESE 18:36:20 30° NE visible
23 Dec 4.0 20:14:39 10° W 20:17:56 24° NW 20:17:56 24° NW visible
24 Dec 2.0 18:10:03 10° SSW 18:15:05 65° ESE 18:18:46 20° NE visible
24 Dec 3.7 19:55:55 10° W 20:00:17 26° NW 20:00:22 26° NW visible
25 Dec 2.1 17:51:29 10° SSW 17:56:29 61° ESE 18:01:08 14° NE visible
25 Dec 3.6 19:37:12 10° W 19:41:38 27° NW 19:42:44 25° NNW visible
26 Dec 2.2 17:32:54 10° SSW 17:37:52 57° ESE 17:43:11 10° NE visible
26 Dec 3.6 19:18:29 10° W 19:22:58 28° NW 19:25:02 22° N visible
27 Dec 3.6 18:59:47 10° W 19:04:19 29° NW 19:07:17 18° N visible
28 Dec 3.5 18:41:04 10° W 18:45:39 30° NW 18:49:29 15° NNE visible
28 Dec 4.8 20:30:35 10° NNW 20:31:04 11° NNW 20:31:04 11° NNW visible
29 Dec 3.5 18:22:22 10° WSW 18:27:00 32° NW 18:31:39 11° NNE visible
29 Dec 4.6 20:11:45 10° NW 20:13:14 12° NNW 20:13:14 12° NNW visible
30 Dec 3.4 18:03:40 10° WSW 18:08:21 33° NW 18:13:19 10° NNE visible
30 Dec 4.5 19:52:56 10° NW 19:54:55 12° NNW 19:55:21 12° NNW visible
